Multibeam Report for KM1226


Ship Name: Kilo Moana
Chief Scientist:
Source Organization: UNOLS R2R
Start Date: 2012-11-19
End Date: 2012-11-30


View ISO Metadata

Visit the full NCEI Bathymetry Viewer


Multibeam Bathymetry

Cruise Details

Project: Transit/Glider Recovery
Instrument: Kongsberg EM122

Data Quality

Number of Files: 290
Number of Records: 59615
BATHYMETRY DATA Quantity Percentage
Number of Beams 25508304 100%
Number of Good Beams 23561726 92.37%
Number of Zero Beams 0 0%
Number of Flagged Beams 1946578 7.63%

Navigation Totals

Total Time: 286.7005 hours
Total Track Length: 6464.4075 km
Average Speed: 22.548 km/hr (12.1750 knots)

Cruise Bounds

Northern Extent: 21.24977
Southern Extent: 7.056575
Western Extent: 154.13925
Eastern Extent: -157.96967

Limits

Minimum Sonar Depth 4.6999 Maximum Sonar Depth 10.2117
Minimum Altitude 161.7813 Maximum Altitude 6114.6235
Minimum Depth 104.1812 Maximum Depth 6409.2017

File Information

Full Resolution Bathymetry as collected (raw): 289

Files File Size Description
0000_20121118_231711_KM122.all.mb58.gz 45.88MB Kongsberg multibeam vendor format
0001_20121119_001717_KM122.all.mb58.gz 43.60MB Kongsberg multibeam vendor format
0002_20121119_011718_KM122.all.mb58.gz 43.13MB Kongsberg multibeam vendor format
0003_20121119_021718_KM122.all.mb58.gz 43.00MB Kongsberg multibeam vendor format
0004_20121119_031711_KM122.all.mb58.gz 43.28MB Kongsberg multibeam vendor format
0005_20121119_041720_KM122.all.mb58.gz 43.18MB Kongsberg multibeam vendor format
0006_20121119_051721_KM122.all.mb58.gz 43.18MB Kongsberg multibeam vendor format
0007_20121119_061716_KM122.all.mb58.gz 43.23MB Kongsberg multibeam vendor format
0008_20121119_071723_KM122.all.mb58.gz 43.30MB Kongsberg multibeam vendor format
0009_20121119_081727_KM122.all.mb58.gz 42.86MB Kongsberg multibeam vendor format
0010_20121119_091709_KM122.all.mb58.gz 43.15MB Kongsberg multibeam vendor format
0011_20121119_101716_KM122.all.mb58.gz 42.82MB Kongsberg multibeam vendor format
0012_20121119_111710_KM122.all.mb58.gz 43.16MB Kongsberg multibeam vendor format
0013_20121119_121722_KM122.all.mb58.gz 43.01MB Kongsberg multibeam vendor format
0014_20121119_131712_KM122.all.mb58.gz 43.37MB Kongsberg multibeam vendor format
0015_20121119_141721_KM122.all.mb58.gz 43.00MB Kongsberg multibeam vendor format
0016_20121119_151725_KM122.all.mb58.gz 43.12MB Kongsberg multibeam vendor format
0017_20121119_161710_KM122.all.mb58.gz 43.36MB Kongsberg multibeam vendor format
0018_20121119_171709_KM122.all.mb58.gz 43.53MB Kongsberg multibeam vendor format
0019_20121119_181712_KM122.all.mb58.gz 43.35MB Kongsberg multibeam vendor format
0020_20121119_191721_KM122.all.mb58.gz 43.47MB Kongsberg multibeam vendor format
0021_20121119_201725_KM122.all.mb58.gz 43.35MB Kongsberg multibeam vendor format
0022_20121119_211709_KM122.all.mb58.gz 43.63MB Kongsberg multibeam vendor format
0023_20121119_221725_KM122.all.mb58.gz 43.35MB Kongsberg multibeam vendor format
0024_20121119_231716_KM122.all.mb58.gz 43.23MB Kongsberg multibeam vendor format
0025_20121120_001713_KM122.all.mb58.gz 43.20MB Kongsberg multibeam vendor format
0026_20121120_011711_KM122.all.mb58.gz 43.45MB Kongsberg multibeam vendor format
0027_20121120_021729_KM122.all.mb58.gz 43.12MB Kongsberg multibeam vendor format
0028_20121120_031714_KM122.all.mb58.gz 47.98MB Kongsberg multibeam vendor format
0029_20121120_041711_KM122.all.mb58.gz 46.66MB Kongsberg multibeam vendor format
0030_20121120_051717_KM122.all.mb58.gz 43.52MB Kongsberg multibeam vendor format
0031_20121120_061722_KM122.all.mb58.gz 43.14MB Kongsberg multibeam vendor format
0032_20121120_071717_KM122.all.mb58.gz 43.19MB Kongsberg multibeam vendor format
0033_20121120_081723_KM122.all.mb58.gz 43.22MB Kongsberg multibeam vendor format
0034_20121120_091732_KM122.all.mb58.gz 43.49MB Kongsberg multibeam vendor format
0035_20121120_101725_KM122.all.mb58.gz 51.96MB Kongsberg multibeam vendor format
0036_20121120_111717_KM122.all.mb58.gz 46.32MB Kongsberg multibeam vendor format
0037_20121120_121728_KM122.all.mb58.gz 43.22MB Kongsberg multibeam vendor format
0038_20121120_131725_KM122.all.mb58.gz 43.16MB Kongsberg multibeam vendor format
0039_20121120_141724_KM122.all.mb58.gz 43.17MB Kongsberg multibeam vendor format
0040_20121120_151725_KM122.all.mb58.gz 43.09MB Kongsberg multibeam vendor format
0041_20121120_161726_KM122.all.mb58.gz 43.07MB Kongsberg multibeam vendor format
0042_20121120_171718_KM122.all.mb58.gz 43.17MB Kongsberg multibeam vendor format
0043_20121120_181725_KM122.all.mb58.gz 43.16MB Kongsberg multibeam vendor format
0044_20121120_191723_KM122.all.mb58.gz 42.98MB Kongsberg multibeam vendor format
0045_20121120_201725_KM122.all.mb58.gz 42.67MB Kongsberg multibeam vendor format
0046_20121120_211721_KM122.all.mb58.gz 42.68MB Kongsberg multibeam vendor format
0047_20121120_221712_KM122.all.mb58.gz 43.05MB Kongsberg multibeam vendor format
0048_20121120_231731_KM122.all.mb58.gz 42.74MB Kongsberg multibeam vendor format
0049_20121121_001728_KM122.all.mb58.gz 42.61MB Kongsberg multibeam vendor format
0050_20121121_011723_KM122.all.mb58.gz 42.86MB Kongsberg multibeam vendor format
0051_20121121_021726_KM122.all.mb58.gz 43.02MB Kongsberg multibeam vendor format
0052_20121121_031730_KM122.all.mb58.gz 42.94MB Kongsberg multibeam vendor format
0053_20121121_041717_KM122.all.mb58.gz 43.23MB Kongsberg multibeam vendor format
0054_20121121_051714_KM122.all.mb58.gz 43.14MB Kongsberg multibeam vendor format
0055_20121121_061713_KM122.all.mb58.gz 43.30MB Kongsberg multibeam vendor format
0056_20121121_071727_KM122.all.mb58.gz 43.23MB Kongsberg multibeam vendor format
0057_20121121_081729_KM122.all.mb58.gz 43.62MB Kongsberg multibeam vendor format
0058_20121121_091723_KM122.all.mb58.gz 47.13MB Kongsberg multibeam vendor format
0059_20121121_101718_KM122.all.mb58.gz 43.33MB Kongsberg multibeam vendor format
0060_20121121_111716_KM122.all.mb58.gz 43.30MB Kongsberg multibeam vendor format
0061_20121121_121723_KM122.all.mb58.gz 43.16MB Kongsberg multibeam vendor format
0062_20121121_131716_KM122.all.mb58.gz 43.44MB Kongsberg multibeam vendor format
0063_20121121_141728_KM122.all.mb58.gz 43.18MB Kongsberg multibeam vendor format
0064_20121121_151724_KM122.all.mb58.gz 43.13MB Kongsberg multibeam vendor format
0065_20121121_161713_KM122.all.mb58.gz 43.21MB Kongsberg multibeam vendor format
0066_20121121_171726_KM122.all.mb58.gz 42.86MB Kongsberg multibeam vendor format
0067_20121121_181731_KM122.all.mb58.gz 42.66MB Kongsberg multibeam vendor format
0068_20121121_191718_KM122.all.mb58.gz 42.96MB Kongsberg multibeam vendor format
0069_20121121_201730_KM122.all.mb58.gz 42.64MB Kongsberg multibeam vendor format
0070_20121121_211719_KM122.all.mb58.gz 42.77MB Kongsberg multibeam vendor format
0071_20121121_221722_KM122.all.mb58.gz 42.72MB Kongsberg multibeam vendor format
0072_20121121_231728_KM122.all.mb58.gz 42.45MB Kongsberg multibeam vendor format
0073_20121122_001722_KM122.all.mb58.gz 42.61MB Kongsberg multibeam vendor format
0074_20121122_011714_KM122.all.mb58.gz 43.04MB Kongsberg multibeam vendor format
0075_20121122_021726_KM122.all.mb58.gz 43.01MB Kongsberg multibeam vendor format
0076_20121122_031728_KM122.all.mb58.gz 43.40MB Kongsberg multibeam vendor format
0077_20121122_041718_KM122.all.mb58.gz 43.43MB Kongsberg multibeam vendor format
0078_20121122_051719_KM122.all.mb58.gz 43.74MB Kongsberg multibeam vendor format
0079_20121122_061731_KM122.all.mb58.gz 43.28MB Kongsberg multibeam vendor format
0080_20121122_071724_KM122.all.mb58.gz 43.42MB Kongsberg multibeam vendor format
0081_20121122_081717_KM122.all.mb58.gz 44.45MB Kongsberg multibeam vendor format
0082_20121122_091721_KM122.all.mb58.gz 43.35MB Kongsberg multibeam vendor format
0083_20121122_101728_KM122.all.mb58.gz 43.10MB Kongsberg multibeam vendor format
0084_20121122_111724_KM122.all.mb58.gz 42.91MB Kongsberg multibeam vendor format
0085_20121122_121718_KM122.all.mb58.gz 43.09MB Kongsberg multibeam vendor format
0086_20121122_131729_KM122.all.mb58.gz 42.68MB Kongsberg multibeam vendor format
0087_20121122_141715_KM122.all.mb58.gz 42.91MB Kongsberg multibeam vendor format
0088_20121122_151733_KM122.all.mb58.gz 42.82MB Kongsberg multibeam vendor format
0089_20121122_161718_KM122.all.mb58.gz 43.25MB Kongsberg multibeam vendor format
0090_20121122_171717_KM122.all.mb58.gz 43.33MB Kongsberg multibeam vendor format
0091_20121122_181728_KM122.all.mb58.gz 43.25MB Kongsberg multibeam vendor format
0092_20121122_191724_KM122.all.mb58.gz 43.22MB Kongsberg multibeam vendor format
0093_20121122_201728_KM122.all.mb58.gz 43.33MB Kongsberg multibeam vendor format
0094_20121122_211726_KM122.all.mb58.gz 43.60MB Kongsberg multibeam vendor format
0095_20121122_221732_KM122.all.mb58.gz 43.84MB Kongsberg multibeam vendor format
0096_20121122_231715_KM122.all.mb58.gz 49.61MB Kongsberg multibeam vendor format
0097_20121123_001715_KM122.all.mb58.gz 45.85MB Kongsberg multibeam vendor format
0098_20121123_011716_KM122.all.mb58.gz 43.96MB Kongsberg multibeam vendor format
0099_20121123_021717_KM122.all.mb58.gz 43.73MB Kongsberg multibeam vendor format
0100_20121123_031731_KM122.all.mb58.gz 43.35MB Kongsberg multibeam vendor format
0101_20121123_041723_KM122.all.mb58.gz 43.47MB Kongsberg multibeam vendor format
0102_20121123_051722_KM122.all.mb58.gz 43.42MB Kongsberg multibeam vendor format
0103_20121123_061719_KM122.all.mb58.gz 43.58MB Kongsberg multibeam vendor format
0104_20121123_071731_KM122.all.mb58.gz 43.25MB Kongsberg multibeam vendor format
0105_20121123_081720_KM122.all.mb58.gz 43.42MB Kongsberg multibeam vendor format
0106_20121123_091732_KM122.all.mb58.gz 43.20MB Kongsberg multibeam vendor format
0107_20121123_101718_KM122.all.mb58.gz 43.16MB Kongsberg multibeam vendor format
0108_20121123_111717_KM122.all.mb58.gz 43.39MB Kongsberg multibeam vendor format
0109_20121123_121725_KM122.all.mb58.gz 45.00MB Kongsberg multibeam vendor format
0110_20121123_131720_KM122.all.mb58.gz 47.87MB Kongsberg multibeam vendor format
0111_20121123_141726_KM122.all.mb58.gz 43.55MB Kongsberg multibeam vendor format
0112_20121123_151722_KM122.all.mb58.gz 43.36MB Kongsberg multibeam vendor format
0113_20121123_161735_KM122.all.mb58.gz 42.94MB Kongsberg multibeam vendor format
0114_20121123_171729_KM122.all.mb58.gz 42.94MB Kongsberg multibeam vendor format
0115_20121123_181722_KM122.all.mb58.gz 42.95MB Kongsberg multibeam vendor format
0116_20121123_191737_KM122.all.mb58.gz 42.80MB Kongsberg multibeam vendor format
0117_20121123_201735_KM122.all.mb58.gz 42.72MB Kongsberg multibeam vendor format
0118_20121123_211717_KM122.all.mb58.gz 42.99MB Kongsberg multibeam vendor format
0119_20121123_221724_KM122.all.mb58.gz 42.83MB Kongsberg multibeam vendor format
0120_20121123_231728_KM122.all.mb58.gz 42.97MB Kongsberg multibeam vendor format
0121_20121124_001729_KM122.all.mb58.gz 42.87MB Kongsberg multibeam vendor format
0122_20121124_011730_KM122.all.mb58.gz 42.71MB Kongsberg multibeam vendor format
0123_20121124_021716_KM122.all.mb58.gz 43.16MB Kongsberg multibeam vendor format
0124_20121124_031733_KM122.all.mb58.gz 42.80MB Kongsberg multibeam vendor format
0125_20121124_041725_KM122.all.mb58.gz 43.09MB Kongsberg multibeam vendor format
0126_20121124_051729_KM122.all.mb58.gz 42.90MB Kongsberg multibeam vendor format
0127_20121124_061723_KM122.all.mb58.gz 43.04MB Kongsberg multibeam vendor format
0128_20121124_071735_KM122.all.mb58.gz 42.98MB Kongsberg multibeam vendor format
0129_20121124_081734_KM122.all.mb58.gz 42.90MB Kongsberg multibeam vendor format
0130_20121124_091716_KM122.all.mb58.gz 43.17MB Kongsberg multibeam vendor format
0131_20121124_101729_KM122.all.mb58.gz 43.04MB Kongsberg multibeam vendor format
0132_20121124_111724_KM122.all.mb58.gz 43.30MB Kongsberg multibeam vendor format
0133_20121124_121733_KM122.all.mb58.gz 43.13MB Kongsberg multibeam vendor format
0134_20121124_131725_KM122.all.mb58.gz 43.50MB Kongsberg multibeam vendor format
0135_20121124_141737_KM122.all.mb58.gz 43.13MB Kongsberg multibeam vendor format
0136_20121124_151722_KM122.all.mb58.gz 43.53MB Kongsberg multibeam vendor format
0137_20121124_161723_KM122.all.mb58.gz 43.63MB Kongsberg multibeam vendor format
0138_20121124_171737_KM122.all.mb58.gz 43.17MB Kongsberg multibeam vendor format
0139_20121124_181717_KM122.all.mb58.gz 43.49MB Kongsberg multibeam vendor format
0140_20121124_191730_KM122.all.mb58.gz 43.25MB Kongsberg multibeam vendor format
0141_20121124_201731_KM122.all.mb58.gz 43.07MB Kongsberg multibeam vendor format
0142_20121124_211719_KM122.all.mb58.gz 43.01MB Kongsberg multibeam vendor format
0143_20121124_221726_KM122.all.mb58.gz 43.18MB Kongsberg multibeam vendor format
0144_20121124_231736_KM122.all.mb58.gz 43.14MB Kongsberg multibeam vendor format
0145_20121125_001717_KM122.all.mb58.gz 43.53MB Kongsberg multibeam vendor format
0146_20121125_011731_KM122.all.mb58.gz 43.32MB Kongsberg multibeam vendor format
0147_20121125_021719_KM122.all.mb58.gz 43.96MB Kongsberg multibeam vendor format
0148_20121125_031729_KM122.all.mb58.gz 43.84MB Kongsberg multibeam vendor format
0149_20121125_041731_KM122.all.mb58.gz 43.70MB Kongsberg multibeam vendor format
0150_20121125_051737_KM122.all.mb58.gz 43.62MB Kongsberg multibeam vendor format
0151_20121125_061735_KM122.all.mb58.gz 43.63MB Kongsberg multibeam vendor format
0152_20121125_071729_KM122.all.mb58.gz 43.78MB Kongsberg multibeam vendor format
0153_20121125_081729_KM122.all.mb58.gz 44.37MB Kongsberg multibeam vendor format
0154_20121125_091727_KM122.all.mb58.gz 44.33MB Kongsberg multibeam vendor format
0155_20121125_101724_KM122.all.mb58.gz 44.79MB Kongsberg multibeam vendor format
0156_20121125_111722_KM122.all.mb58.gz 44.89MB Kongsberg multibeam vendor format
0157_20121125_121728_KM122.all.mb58.gz 44.86MB Kongsberg multibeam vendor format
0158_20121125_131727_KM122.all.mb58.gz 46.39MB Kongsberg multibeam vendor format
0159_20121125_141724_KM122.all.mb58.gz 46.52MB Kongsberg multibeam vendor format
0160_20121125_151722_KM122.all.mb58.gz 48.65MB Kongsberg multibeam vendor format
0161_20121125_161724_KM122.all.mb58.gz 47.66MB Kongsberg multibeam vendor format
0162_20121125_171729_KM122.all.mb58.gz 45.06MB Kongsberg multibeam vendor format
0163_20121125_181727_KM122.all.mb58.gz 45.62MB Kongsberg multibeam vendor format
0164_20121125_191731_KM122.all.mb58.gz 44.79MB Kongsberg multibeam vendor format
0165_20121125_201720_KM122.all.mb58.gz 45.56MB Kongsberg multibeam vendor format
0166_20121125_211725_KM122.all.mb58.gz 46.22MB Kongsberg multibeam vendor format
0167_20121125_221724_KM122.all.mb58.gz 53.05MB Kongsberg multibeam vendor format
0168_20121125_231724_KM122.all.mb58.gz 55.30MB Kongsberg multibeam vendor format
0169_20121126_001720_KM122.all.mb58.gz 50.98MB Kongsberg multibeam vendor format
0170_20121126_011726_KM122.all.mb58.gz 47.44MB Kongsberg multibeam vendor format
0171_20121126_021727_KM122.all.mb58.gz 49.36MB Kongsberg multibeam vendor format
0172_20121126_031727_KM122.all.mb58.gz 54.53MB Kongsberg multibeam vendor format
0173_20121126_041719_KM122.all.mb58.gz 48.62MB Kongsberg multibeam vendor format
0174_20121126_051727_KM122.all.mb58.gz 45.98MB Kongsberg multibeam vendor format
0175_20121126_061728_KM122.all.mb58.gz 45.88MB Kongsberg multibeam vendor format
0176_20121126_071731_KM122.all.mb58.gz 49.87MB Kongsberg multibeam vendor format
0177_20121126_081727_KM122.all.mb58.gz 52.00MB Kongsberg multibeam vendor format
0178_20121126_091720_KM122.all.mb58.gz 46.32MB Kongsberg multibeam vendor format
0179_20121126_101731_KM122.all.mb58.gz 45.94MB Kongsberg multibeam vendor format
0180_20121126_111727_KM122.all.mb58.gz 45.38MB Kongsberg multibeam vendor format
0181_20121126_121721_KM122.all.mb58.gz 45.09MB Kongsberg multibeam vendor format
0182_20121126_131722_KM122.all.mb58.gz 45.09MB Kongsberg multibeam vendor format
0183_20121126_141732_KM122.all.mb58.gz 44.62MB Kongsberg multibeam vendor format
0184_20121126_151720_KM122.all.mb58.gz 44.82MB Kongsberg multibeam vendor format
0185_20121126_161723_KM122.all.mb58.gz 44.61MB Kongsberg multibeam vendor format
0186_20121126_171731_KM122.all.mb58.gz 47.51MB Kongsberg multibeam vendor format
0187_20121126_181734_KM122.all.mb58.gz 44.56MB Kongsberg multibeam vendor format
0188_20121126_191722_KM122.all.mb58.gz 44.88MB Kongsberg multibeam vendor format
0189_20121126_201736_KM122.all.mb58.gz 44.36MB Kongsberg multibeam vendor format
0190_20121126_211724_KM122.all.mb58.gz 44.35MB Kongsberg multibeam vendor format
0191_20121126_221737_KM122.all.mb58.gz 44.13MB Kongsberg multibeam vendor format
0192_20121126_231730_KM122.all.mb58.gz 44.13MB Kongsberg multibeam vendor format
0193_20121127_001730_KM122.all.mb58.gz 43.91MB Kongsberg multibeam vendor format
0194_20121127_011734_KM122.all.mb58.gz 43.81MB Kongsberg multibeam vendor format
0195_20121127_021730_KM122.all.mb58.gz 44.13MB Kongsberg multibeam vendor format
0196_20121127_031739_KM122.all.mb58.gz 43.63MB Kongsberg multibeam vendor format
0197_20121127_041734_KM122.all.mb58.gz 43.91MB Kongsberg multibeam vendor format
0198_20121127_051725_KM122.all.mb58.gz 44.01MB Kongsberg multibeam vendor format
0199_20121127_061726_KM122.all.mb58.gz 44.12MB Kongsberg multibeam vendor format
0200_20121127_071736_KM122.all.mb58.gz 44.03MB Kongsberg multibeam vendor format
0201_20121127_081739_KM122.all.mb58.gz 43.88MB Kongsberg multibeam vendor format
0202_20121127_091725_KM122.all.mb58.gz 44.02MB Kongsberg multibeam vendor format
0203_20121127_101738_KM122.all.mb58.gz 43.89MB Kongsberg multibeam vendor format
0204_20121127_111738_KM122.all.mb58.gz 43.85MB Kongsberg multibeam vendor format
0205_20121127_121732_KM122.all.mb58.gz 43.76MB Kongsberg multibeam vendor format
0206_20121127_131725_KM122.all.mb58.gz 44.03MB Kongsberg multibeam vendor format
0207_20121127_141733_KM122.all.mb58.gz 43.73MB Kongsberg multibeam vendor format
0208_20121127_151727_KM122.all.mb58.gz 43.94MB Kongsberg multibeam vendor format
0209_20121127_161737_KM122.all.mb58.gz 43.70MB Kongsberg multibeam vendor format
0210_20121127_171728_KM122.all.mb58.gz 43.70MB Kongsberg multibeam vendor format
0211_20121127_181724_KM122.all.mb58.gz 43.97MB Kongsberg multibeam vendor format
0212_20121127_191734_KM122.all.mb58.gz 43.67MB Kongsberg multibeam vendor format
0213_20121127_201724_KM122.all.mb58.gz 44.03MB Kongsberg multibeam vendor format
0214_20121127_211723_KM122.all.mb58.gz 43.98MB Kongsberg multibeam vendor format
0215_20121127_221730_KM122.all.mb58.gz 43.84MB Kongsberg multibeam vendor format
0216_20121127_231726_KM122.all.mb58.gz 43.80MB Kongsberg multibeam vendor format
0217_20121128_001723_KM122.all.mb58.gz 43.90MB Kongsberg multibeam vendor format
0218_20121128_011725_KM122.all.mb58.gz 44.02MB Kongsberg multibeam vendor format
0219_20121128_021732_KM122.all.mb58.gz 43.93MB Kongsberg multibeam vendor format
0220_20121128_031727_KM122.all.mb58.gz 43.98MB Kongsberg multibeam vendor format
0221_20121128_041739_KM122.all.mb58.gz 43.97MB Kongsberg multibeam vendor format
0222_20121128_051729_KM122.all.mb58.gz 44.08MB Kongsberg multibeam vendor format
0223_20121128_061733_KM122.all.mb58.gz 43.86MB Kongsberg multibeam vendor format
0224_20121128_071725_KM122.all.mb58.gz 44.08MB Kongsberg multibeam vendor format
0225_20121128_081729_KM122.all.mb58.gz 44.10MB Kongsberg multibeam vendor format
0226_20121128_091732_KM122.all.mb58.gz 43.88MB Kongsberg multibeam vendor format
0227_20121128_101723_KM122.all.mb58.gz 43.95MB Kongsberg multibeam vendor format
0228_20121128_111725_KM122.all.mb58.gz 44.49MB Kongsberg multibeam vendor format
0229_20121128_121733_KM122.all.mb58.gz 43.84MB Kongsberg multibeam vendor format
0230_20121128_131728_KM122.all.mb58.gz 43.85MB Kongsberg multibeam vendor format
0231_20121128_141724_KM122.all.mb58.gz 44.07MB Kongsberg multibeam vendor format
0232_20121128_151733_KM122.all.mb58.gz 43.99MB Kongsberg multibeam vendor format
0233_20121128_161723_KM122.all.mb58.gz 44.10MB Kongsberg multibeam vendor format
0234_20121128_171729_KM122.all.mb58.gz 44.97MB Kongsberg multibeam vendor format
0235_20121128_181724_KM122.all.mb58.gz 45.67MB Kongsberg multibeam vendor format
0236_20121128_191732_KM122.all.mb58.gz 44.16MB Kongsberg multibeam vendor format
0237_20121128_201726_KM122.all.mb58.gz 43.62MB Kongsberg multibeam vendor format
0238_20121128_211725_KM122.all.mb58.gz 43.99MB Kongsberg multibeam vendor format
0239_20121128_221719_KM122.all.mb58.gz 44.05MB Kongsberg multibeam vendor format
0240_20121128_231715_KM122.all.mb58.gz 43.70MB Kongsberg multibeam vendor format
0241_20121129_001718_KM122.all.mb58.gz 43.46MB Kongsberg multibeam vendor format
0242_20121129_011725_KM122.all.mb58.gz 43.36MB Kongsberg multibeam vendor format
0243_20121129_021717_KM122.all.mb58.gz 43.64MB Kongsberg multibeam vendor format
0244_20121129_031727_KM122.all.mb58.gz 43.50MB Kongsberg multibeam vendor format
0245_20121129_041714_KM122.all.mb58.gz 43.71MB Kongsberg multibeam vendor format
0246_20121129_051711_KM122.all.mb58.gz 43.62MB Kongsberg multibeam vendor format
0247_20121129_061710_KM122.all.mb58.gz 43.62MB Kongsberg multibeam vendor format
0248_20121129_071714_KM122.all.mb58.gz 43.65MB Kongsberg multibeam vendor format
0249_20121129_081714_KM122.all.mb58.gz 43.65MB Kongsberg multibeam vendor format
0250_20121129_091715_KM122.all.mb58.gz 43.67MB Kongsberg multibeam vendor format
0251_20121129_101720_KM122.all.mb58.gz 43.35MB Kongsberg multibeam vendor format
0252_20121129_111722_KM122.all.mb58.gz 43.24MB Kongsberg multibeam vendor format
0253_20121129_121719_KM122.all.mb58.gz 43.64MB Kongsberg multibeam vendor format
0254_20121129_131713_KM122.all.mb58.gz 43.79MB Kongsberg multibeam vendor format
0255_20121129_141711_KM122.all.mb58.gz 43.25MB Kongsberg multibeam vendor format
0256_20121129_151706_KM122.all.mb58.gz 43.65MB Kongsberg multibeam vendor format
0257_20121129_161715_KM122.all.mb58.gz 43.49MB Kongsberg multibeam vendor format
0258_20121129_171707_KM122.all.mb58.gz 43.77MB Kongsberg multibeam vendor format
0259_20121129_181719_KM122.all.mb58.gz 43.68MB Kongsberg multibeam vendor format
0260_20121129_191718_KM122.all.mb58.gz 43.54MB Kongsberg multibeam vendor format
0261_20121129_201707_KM122.all.mb58.gz 43.69MB Kongsberg multibeam vendor format
0262_20121129_211713_KM122.all.mb58.gz 43.80MB Kongsberg multibeam vendor format
0263_20121129_221715_KM122.all.mb58.gz 43.73MB Kongsberg multibeam vendor format
0264_20121129_231712_KM122.all.mb58.gz 43.85MB Kongsberg multibeam vendor format
0265_20121130_001720_KM122.all.mb58.gz 43.78MB Kongsberg multibeam vendor format
0266_20121130_011714_KM122.all.mb58.gz 43.66MB Kongsberg multibeam vendor format
0267_20121130_021709_KM122.all.mb58.gz 43.62MB Kongsberg multibeam vendor format
0268_20121130_031706_KM122.all.mb58.gz 43.75MB Kongsberg multibeam vendor format
0269_20121130_041710_KM122.all.mb58.gz 43.83MB Kongsberg multibeam vendor format
0270_20121130_051710_KM122.all.mb58.gz 43.77MB Kongsberg multibeam vendor format
0271_20121130_061709_KM122.all.mb58.gz 43.68MB Kongsberg multibeam vendor format
0272_20121130_071709_KM122.all.mb58.gz 43.93MB Kongsberg multibeam vendor format
0273_20121130_081717_KM122.all.mb58.gz 43.72MB Kongsberg multibeam vendor format
0274_20121130_091706_KM122.all.mb58.gz 43.81MB Kongsberg multibeam vendor format
0275_20121130_101715_KM122.all.mb58.gz 43.88MB Kongsberg multibeam vendor format
0276_20121130_111719_KM122.all.mb58.gz 43.58MB Kongsberg multibeam vendor format
0277_20121130_121713_KM122.all.mb58.gz 43.61MB Kongsberg multibeam vendor format
0278_20121130_131721_KM122.all.mb58.gz 43.26MB Kongsberg multibeam vendor format
0279_20121130_141713_KM122.all.mb58.gz 43.55MB Kongsberg multibeam vendor format
0280_20121130_151708_KM122.all.mb58.gz 44.08MB Kongsberg multibeam vendor format
0281_20121130_161718_KM122.all.mb58.gz 44.26MB Kongsberg multibeam vendor format
0282_20121130_171714_KM122.all.mb58.gz 43.90MB Kongsberg multibeam vendor format
0283_20121130_181721_KM122.all.mb58.gz 43.70MB Kongsberg multibeam vendor format
0284_20121130_191723_KM122.all.mb58.gz 43.91MB Kongsberg multibeam vendor format
0285_20121130_201717_KM122.all.mb58.gz 44.65MB Kongsberg multibeam vendor format
0286_20121130_211709_KM122.all.mb58.gz 45.51MB Kongsberg multibeam vendor format
0287_20121130_221709_KM122.all.mb58.gz 63.95MB Kongsberg multibeam vendor format
0288_20121130_231708_KM122.all.mb58.gz 13.96MB Kongsberg multibeam vendor format

Metadata Files: 1

Files File Size Description
KM1226_Multibeam.xml NGDC created ISO metadata